Overview Statistics Trail Chart Weather Telemetry Raw packets
 

This is the latest recevied weather packets stored in our database for station/object 9A7DI-13. If no packets are shown the sender has not sent any weather packets the latest 10 day(s).

<< 37 38 39 40 41 42 43 >>
Time Temp. Humidity Pressure Rain* Wind** Luminosity Snow
1788098810 31.11° C 36% 1023.5 hPa - - - -
1788098210 31.11° C 35% 1023.6 hPa - - - -
1788097610 31.11° C 35% 1023.6 hPa - - - -
1788097010 31.11° C 35% 1023.7 hPa - - - -
1788096410 30.56° C 36% 1023.9 hPa - - - -
1788095810 31.11° C 36% 1024 hPa - - - -
1788095210 31.11° C 36% 1024 hPa - - - -
1788094610 31.11° C 37% 1024.2 hPa - - - -
1788094010 31.67° C 36% 1024.2 hPa - - - -
1788093410 31.11° C 37% 1024.3 hPa - - - -
1788092811 30.56° C 37% 1024.4 hPa - - - -
1788092210 31.11° C 36% 1024.5 hPa - - - -
1788091610 31.11° C 35% 1024.6 hPa - - - -
1788091010 31.11° C 36% 1024.7 hPa - - - -
1788090410 31.11° C 38% 1024.6 hPa - - - -
1788089810 31.67° C 36% 1024.7 hPa - - - -
1788089210 31.11° C 37% 1024.9 hPa - - - -
1788088610 31.11° C 37% 1024.9 hPa - - - -
1788088010 31.67° C 37% 1025 hPa - - - -
1788087411 31.67° C 36% 1025.1 hPa - - - -
1788086811 31.11° C 37% 1025.1 hPa - - - -
1788086210 32.22° C 37% 1025.1 hPa - - - -
1788085611 31.67° C 36% 1025.2 hPa - - - -
1788085011 31.67° C 35% 1025.3 hPa - - - -
1788084420 31.67° C 36% 1025.3 hPa - - - -

* Rain since midnight (hover to see other rain measurements)
** Current wind speed in m/s (hover to see current wind gust speed)